�������l�o���
Date,Time,MP-1(��Sv/h),MP-2(��Sv/h),MP-3(��Sv/h),MP-4(��Sv/h),MP-5(��Sv/h),MP-6(��Sv/h),MP-7(��Sv/h),MP-8(��Sv/h),����,����(m/s),���J
2014/08/30,00:00,2.135,3.853,4.263,3.762,4.003,1.493,2.077,2.298,�k,3.3,��
2014/08/30,00:10,2.137,3.855,4.258,3.760,4.002,1.493,2.075,2.303,�k,3.8,��
2014/08/30,00:20,2.137,3.855,4.260,3.760,4.002,1.493,2.077,2.300,�k,3.9,��
2014/08/30,00:30,2.138,3.853,4.263,3.760,4.003,1.493,2.075,2.302,�k,4.2,�L
2014/08/30,00:40,2.135,3.852,4.265,3.762,4.002,1.493,2.077,2.300,�k�k��,4.2,��
2014/08/30,00:50,2.133,3.850,4.263,3.762,4.000,1.493,2.077,2.295,�k�k��,3.9,��
2014/08/30,01:00,2.135,3.852,4.263,3.765,4.000,1.493,2.075,2.300,�k�k��,3.1,��
2014/08/30,01:10,2.127,3.847,4.262,3.762,4.002,1.493,2.075,2.303,�k�k��,3.2,�L
2014/08/30,01:20,2.108,3.798,4.253,3.757,4.002,1.492,2.075,2.298,�k�k��,2.4,�L
2014/08/30,01:30,2.097,3.762,4.233,3.755,3.998,1.492,2.075,2.298,�k�k��,2.2,�L
2014/08/30,01:40,2.098,3.750,4.225,3.755,3.993,1.492,2.073,2.298,�k�k��,1.6,�L
2014/08/30,01:50,2.100,3.752,4.222,3.762,3.997,1.492,2.075,2.300,�k,1.2,�L
2014/08/30,02:00,2.097,3.742,4.217,3.758,3.988,1.492,2.073,2.298,�k,1.5,�L
2014/08/30,02:10,2.088,3.713,4.205,3.743,3.960,1.488,2.072,2.295,�k�k��,0.8,�L
2014/08/30,02:20,2.077,3.687,4.177,3.730,3.892,1.472,2.065,2.295,�k�k��,1.5,�L
2014/08/30,02:30,2.075,3.668,4.145,3.712,3.860,1.465,2.062,2.295,�k��,0.6,�L
2014/08/30,02:40,2.070,3.658,4.125,3.695,3.847,1.465,2.057,2.287,�k,1.4,�L
2014/08/30,02:50,2.067,3.642,4.110,3.678,3.832,1.462,2.052,2.282,�쓌,0.8,�L
2014/08/30,03:00,2.063,3.632,4.097,3.665,3.820,1.458,2.047,2.278,��쐼,0.6,�L
2014/08/30,03:10,2.063,3.637,4.088,3.655,3.820,1.457,2.045,2.273,��쐼,2.0,�L
2014/08/30,03:20,2.063,3.640,4.083,3.652,3.810,1.457,2.042,2.272,��,2.7,�L
2014/08/30,03:30,2.067,3.642,4.085,3.642,3.813,1.458,2.040,2.270,��,3.2,�L
2014/08/30,03:40,2.067,3.648,4.083,3.643,3.812,1.460,2.038,2.272,��,1.9,�L
2014/08/30,03:50,2.062,3.642,4.072,3.635,3.805,1.458,2.040,2.267,��쐼,1.7,�L
2014/08/30,04:00,2.060,3.630,4.063,3.622,3.788,1.453,2.037,2.267,��쐼,0.8,�L
2014/08/30,04:10,2.057,3.625,4.058,3.620,3.778,1.452,2.033,2.267,���쐼,2.6,�L
2014/08/30,04:20,2.058,3.630,4.062,3.618,3.783,1.452,2.035,2.265,��,1.3,�L
2014/08/30,04:30,2.060,3.642,4.070,3.632,3.795,1.455,2.035,2.267,��,1.3,�L
2014/08/30,04:40,2.065,3.655,4.078,3.633,3.802,1.453,2.037,2.265,�쐼,1.0,�L
2014/08/30,04:50,2.068,3.663,4.087,3.642,3.808,1.452,2.033,2.268,��쐼,1.0,�L
2014/08/30,05:00,2.068,3.668,4.087,3.640,3.807,1.457,2.038,2.265,�쐼,1.4,�L
2014/08/30,05:10,2.072,3.670,4.092,3.645,3.817,1.455,2.035,2.270,���쐼,2.7,�L
2014/08/30,05:20,2.073,3.675,4.090,3.647,3.820,1.455,2.033,2.267,�쐼,2.7,�L
2014/08/30,05:30,2.075,3.682,4.093,3.643,3.823,1.455,2.037,2.267,���쐼,3.4,��
2014/08/30,05:40,2.073,3.687,4.097,3.652,3.828,1.458,2.038,2.265,�쐼,3.9,��
2014/08/30,05:50,2.075,3.685,4.097,3.652,3.837,1.457,2.037,2.270,�쐼,3.4,��
2014/08/30,06:00,2.073,3.692,4.100,3.657,3.842,1.455,2.037,2.270,�쐼,2.4,��
2014/08/30,06:10,2.075,3.697,4.107,3.657,3.842,1.458,2.038,2.268,���쐼,3.4,��
2014/08/30,06:20,2.078,3.698,4.112,3.658,3.843,1.458,2.038,2.270,�쐼,2.7,��
2014/08/30,06:30,2.080,3.700,4.110,3.658,3.845,1.457,2.038,2.268,���k��,4.1,��
2014/08/30,06:40,2.078,3.697,4.110,3.660,3.850,1.448,2.042,2.270,��쐼,1.2,��
2014/08/30,06:50,2.077,3.700,4.115,3.657,3.848,1.447,2.042,2.268,�쐼,2.3,��
2014/08/30,07:00,2.080,3.708,4.117,3.660,3.847,1.442,2.042,2.272,��쓌,2.8,��
2014/08/30,07:10,2.082,3.712,4.122,3.663,3.852,1.445,2.040,2.272,��쐼,3.0,��
2014/08/30,07:20,2.080,3.718,4.120,3.663,3.850,1.438,2.042,2.268,��쐼,3.7,��
2014/08/30,07:30,2.082,3.717,4.125,3.668,3.855,1.438,2.043,2.268,�쐼,3.1,��
2014/08/30,07:40,2.085,3.718,4.125,3.668,3.862,1.437,2.043,2.270,��,3.1,��
2014/08/30,07:50,2.083,3.717,4.133,3.668,3.863,1.435,2.043,2.270,�쐼,1.9,��
2014/08/30,08:00,2.085,3.722,4.135,3.670,3.868,1.435,2.043,2.270,��,2.6,��
2014/08/30,08:10,2.088,3.725,4.132,3.672,3.872,1.435,2.043,2.272,���k��,2.0,��
2014/08/30,08:20,2.090,3.727,4.133,3.677,3.870,1.440,2.047,2.270,���k��,1.8,��
2014/08/30,08:30,2.090,3.732,4.135,3.680,3.877,1.440,2.045,2.270,��,1.0,��
2014/08/30,08:40,2.087,3.733,4.137,3.682,3.878,1.442,2.048,2.268,-,CALM,��
2014/08/30,08:50,2.090,3.737,4.145,3.677,3.878,1.440,2.048,2.273,-,CALM,��
2014/08/30,09:00,2.088,3.738,4.148,3.682,3.877,1.438,2.048,2.275,���k��,0.7,��
2014/08/30,09:10,2.090,3.742,4.150,3.685,3.882,1.440,2.050,2.278,�k�k��,0.6,��
2014/08/30,09:20,2.090,3.743,4.150,3.680,3.882,1.440,2.052,2.277,�k,1.2,��
2014/08/30,09:30,2.090,3.743,4.157,3.683,3.888,1.440,2.050,2.278,�k,1.2,��
2014/08/30,09:40,2.093,3.745,4.162,3.685,3.895,1.442,2.053,2.280,���k��,1.2,��
2014/08/30,09:50,2.097,3.752,4.158,3.685,3.902,1.445,2.055,2.280,�k,0.9,��
2014/08/30,10:00,2.098,3.753,4.167,3.690,3.907,1.442,2.053,2.282,���k��,0.9,��
2014/08/30,10:10,2.098,3.760,4.167,3.692,3.908,1.447,2.057,2.280,�k,1.9,��
2014/08/30,10:20,2.098,3.762,4.172,3.692,3.912,1.450,2.053,2.280,�k��,2.0,��
2014/08/30,10:30,2.098,3.767,4.182,3.695,3.912,1.455,2.057,2.283,�k�k��,2.9,��
2014/08/30,10:40,2.102,3.773,4.183,3.698,3.910,1.453,2.057,2.283,�k��,4.0,��
2014/08/30,10:50,2.103,3.768,4.187,3.698,3.922,1.457,2.060,2.285,�k��,3.9,��
2014/08/30,11:00,2.103,3.775,4.185,3.698,3.927,1.457,2.057,2.285,�k��,5.1,��
2014/08/30,11:10,2.102,3.777,4.188,3.698,3.930,1.460,2.060,2.282,�k��,4.5,��
2014/08/30,11:20,2.103,3.778,4.190,3.702,3.930,1.458,2.062,2.283,�k��,4.0,��
2014/08/30,11:30,2.103,3.778,4.193,3.702,3.930,1.458,2.058,2.283,�k��,3.7,��
2014/08/30,11:40,2.107,3.782,4.195,3.707,3.933,1.463,2.058,2.288,�k��,3.7,��
2014/08/30,11:50,2.105,3.785,4.192,3.705,3.935,1.463,2.062,2.285,�k��,3.5,��
2014/08/30,12:00,2.108,3.785,4.192,3.707,3.937,1.463,2.060,2.285,�k�k��,4.3,��
2014/08/30,12:10,2.107,3.782,4.200,3.708,3.943,1.465,2.062,2.282,�k��,3.8,��
2014/08/30,12:20,2.108,3.790,4.205,3.710,3.945,1.465,2.062,2.290,�k��,4.4,��
2014/08/30,12:30,2.113,3.790,4.207,3.712,3.947,1.467,2.065,2.287,���k��,4.4,��
2014/08/30,12:40,2.112,3.795,4.208,3.717,3.950,1.467,2.065,2.290,�k��,4.4,��
2014/08/30,12:50,2.115,3.798,4.210,3.720,3.953,1.468,2.065,2.288,���k��,4.5,��
2014/08/30,13:00,2.113,3.800,4.208,3.722,3.952,1.468,2.067,2.292,�k�k��,4.2,��
2014/08/30,13:10,2.117,3.798,4.212,3.723,3.957,1.460,2.068,2.290,�k��,4.5,��
2014/08/30,13:20,2.115,3.802,4.213,3.727,3.960,1.463,2.067,2.290,�k�k��,3.5,��
2014/08/30,13:30,2.115,3.803,4.222,3.723,3.962,1.463,2.067,2.290,���k��,4.5,��
2014/08/30,13:40,2.115,3.808,4.222,3.725,3.963,1.468,2.068,2.288,�k��,3.8,��
2014/08/30,13:50,2.118,3.807,4.223,3.722,3.962,1.470,2.067,2.292,��,4.5,��
2014/08/30,14:00,2.117,3.808,4.227,3.723,3.962,1.472,2.068,2.292,�k��,4.2,��
2014/08/30,14:10,2.122,3.812,4.225,3.728,3.968,1.473,2.068,2.292,�k��,3.5,��
2014/08/30,14:20,2.122,3.813,4.227,3.732,3.968,1.477,2.068,2.290,�k��,4.1,��
2014/08/30,14:30,2.123,3.810,4.233,3.733,3.967,1.485,2.068,2.293,���k��,3.8,��
2014/08/30,14:40,2.120,3.812,4.238,3.733,3.975,1.485,2.070,2.292,���k��,4.1,��
2014/08/30,14:50,2.122,3.815,4.237,3.735,3.968,1.490,2.068,2.293,�k��,3.9,��
2014/08/30,15:00,2.122,3.818,4.228,3.737,3.970,1.488,2.072,2.290,�k��,4.4,��
2014/08/30,15:10,2.120,3.818,4.232,3.735,3.977,1.488,2.072,2.293,�k��,4.4,��
2014/08/30,15:20,2.120,3.818,4.233,3.738,3.975,1.487,2.072,2.290,�k�k��,3.8,��
2014/08/30,15:30,2.123,3.818,4.237,3.738,3.980,1.487,2.070,2.290,�k��,4.3,��
2014/08/30,15:40,2.118,3.818,4.237,3.738,3.982,1.488,2.070,2.290,�k��,4.1,��
2014/08/30,15:50,2.122,3.818,4.233,3.737,3.978,1.492,2.075,2.288,�k�k��,4.5,��
2014/08/30,16:00,2.123,3.817,4.240,3.737,3.982,1.488,2.072,2.290,�k�k��,4.8,��
2014/08/30,16:10,2.127,3.822,4.240,3.740,3.982,1.490,2.073,2.290,�k��,5.1,��
2014/08/30,16:20,2.122,3.823,4.243,3.740,3.980,1.488,2.072,2.288,�k�k��,4.6,��
2014/08/30,16:30,2.120,3.820,4.238,3.742,3.980,1.490,2.075,2.287,�k�k��,4.5,��
2014/08/30,16:40,2.118,3.818,4.240,3.740,3.975,1.488,2.075,2.287,�k�k��,4.8,��
2014/08/30,16:50,2.123,3.817,4.240,3.740,3.980,1.490,2.070,2.288,�k,4.7,��
2014/08/30,17:00,2.123,3.820,4.238,3.735,3.983,1.490,2.072,2.290,�k�k��,4.2,��
2014/08/30,17:10,2.122,3.827,4.237,3.740,3.982,1.487,2.072,2.295,�k�k��,4.4,��
2014/08/30,17:20,2.122,3.825,4.233,3.742,3.980,1.488,2.072,2.292,�k��,3.6,��
2014/08/30,17:30,2.122,3.823,4.237,3.738,3.982,1.490,2.072,2.287,�k��,4.2,��
2014/08/30,17:40,2.123,3.823,4.238,3.742,3.980,1.492,2.070,2.288,�k��,3.3,��
2014/08/30,17:50,2.125,3.825,4.240,3.743,3.980,1.488,2.072,2.290,�k��,3.9,��
2014/08/30,18:00,2.125,3.822,4.240,3.743,3.983,1.487,2.073,2.290,�k�k��,3.6,��
2014/08/30,18:10,2.123,3.820,4.240,3.738,3.982,1.492,2.073,2.290,�k��,3.2,��
2014/08/30,18:20,2.123,3.818,4.237,3.742,3.982,1.487,2.073,2.292,�k�k��,3.8,��
2014/08/30,18:30,2.122,3.822,4.240,3.740,3.978,1.488,2.075,2.288,�k�k��,3.9,��
2014/08/30,18:40,2.123,3.825,4.233,3.743,3.978,1.488,2.070,2.292,�k��,4.3,��
2014/08/30,18:50,2.123,3.823,4.237,3.740,3.978,1.490,2.072,2.292,�k�k��,4.0,��
2014/08/30,19:00,2.120,3.818,4.238,3.738,3.977,1.490,2.073,2.290,�k�k��,4.2,��
2014/08/30,19:10,2.123,3.823,4.240,3.740,3.980,1.492,2.072,2.288,�k�k��,3.6,��
2014/08/30,19:20,2.122,3.823,4.235,3.737,3.978,1.487,2.073,2.290,�k��,3.7,��
2014/08/30,19:30,2.120,3.825,4.240,3.738,3.980,1.488,2.070,2.290,�k,4.1,��
2014/08/30,19:40,2.122,3.817,4.238,3.742,3.980,1.488,2.073,2.293,�k,3.8,��
2014/08/30,19:50,2.122,3.818,4.238,3.738,3.977,1.487,2.073,2.292,�k,4.1,��
2014/08/30,20:00,2.118,3.817,4.237,3.735,3.973,1.487,2.072,2.292,�k,4.3,��
2014/08/30,20:10,2.120,3.822,4.232,3.737,3.975,1.487,2.072,2.290,�k,4.1,��
2014/08/30,20:20,2.120,3.825,4.235,3.743,3.980,1.487,2.070,2.293,�k,3.8,��
2014/08/30,20:30,2.125,3.820,4.233,3.740,3.975,1.487,2.067,2.293,�k,3.8,��
2014/08/30,20:40,2.123,3.822,4.237,3.738,3.975,1.485,2.067,2.288,�k,3.9,��
2014/08/30,20:50,2.118,3.818,4.232,3.738,3.980,1.488,2.072,2.292,�k,4.3,��
2014/08/30,21:00,2.118,3.820,4.228,3.742,3.977,1.488,2.070,2.293,�k,4.0,��
2014/08/30,21:10,2.120,3.818,4.232,3.735,3.978,1.487,2.072,2.293,�k,4.0,��
2014/08/30,21:20,2.122,3.817,4.233,3.742,3.977,1.488,2.072,2.295,�k,3.8,��
2014/08/30,21:30,2.120,3.817,4.232,3.743,3.978,1.487,2.068,2.295,�k,4.2,��
2014/08/30,21:40,2.117,3.813,4.233,3.737,3.972,1.482,2.070,2.295,�k,4.0,��
2014/08/30,21:50,2.118,3.817,4.233,3.737,3.975,1.485,2.070,2.295,�k,4.5,��
2014/08/30,22:00,2.120,3.820,4.235,3.742,3.978,1.488,2.072,2.295,�k,4.3,��
2014/08/30,22:10,2.120,3.820,4.232,3.742,3.977,1.487,2.072,2.292,�k�k��,4.8,��
2014/08/30,22:20,2.122,3.818,4.232,3.740,3.975,1.485,2.072,2.292,�k,4.8,�L
2014/08/30,22:30,2.115,3.798,4.215,3.733,3.963,1.485,2.068,2.293,�k,4.9,�L
2014/08/30,22:40,2.110,3.777,4.188,3.723,3.945,1.478,2.065,2.288,�k,4.7,��
2014/08/30,22:50,2.105,3.770,4.178,3.718,3.945,1.478,2.065,2.293,�k,4.4,��
2014/08/30,23:00,2.108,3.767,4.180,3.720,3.945,1.483,2.065,2.290,�k,4.1,��
2014/08/30,23:10,2.112,3.768,4.187,3.718,3.943,1.482,2.067,2.288,�k�k��,4.7,��
2014/08/30,23:20,2.113,3.770,4.183,3.720,3.945,1.482,2.063,2.290,�k�k��,4.9,��
2014/08/30,23:30,2.112,3.767,4.182,3.725,3.945,1.482,2.063,2.290,�k�k��,5.2,��
2014/08/30,23:40,2.112,3.767,4.185,3.725,3.947,1.480,2.065,2.290,�k�k��,4.8,��
2014/08/30,23:50,2.108,3.768,4.180,3.727,3.940,1.482,2.067,2.292,�k�k��,4.8,��
